Regional Weather Roundup
Issued by NWS

Home | Current Version | Previous Version | Text Only | Print | Product List | Glossary On
Versions: 1 2 3 4 5 6 7 8 9 10 11 12 13 14 15 16 17 18 19 20 21 22 23 24 25 26 27 28 29 30 31 32 33 34 35 36 37 38 39 40 41 42 43 44 45 46 47 48 49 50
858
ASUS44 KJAN 191703
RWRMS

MISSISSIPPI HOURLY WEATHER ROUNDUP
NATIONAL WEATHER SERVICE JACKSON MS
1200 PM CDT SUN APR 19 2015

NOTE: "FAIR: INDICATES FEW OR NO CLOUDS BELOW 12,000 FEET WITH NO
SIGNIFICANT WEATHER AND/OR OBSTRUCTIONS TO VISIBILITY.

MSZ001>002-007>008-010>013-018>021-025>028-034>036-191800-
NORTHWEST MISSISSIPPI

CITY           SKY/WX    TMP DP  RH WIND       PRES   REMARKS
CLARKSDALE       N/A     68  68 100 SW17G23   29.72R
CLEVELAND      PTSUNNY   69  67  93 W10       29.74R
GREENWOOD      CLOUDY    67  62  84 SW12      29.74R
GREENVILLE     MOSUNNY   72  59  63 W10       29.75R
OXFORD         FOG       63  63 100 SW6G20    29.70R VSB 1/2
TUNICA         PTSUNNY   68  63  83 W14       29.70S
$$

MSZ003>006-009-014>017-022>024-029>033-037>039-191800-
NORTHEAST MISSISSIPPI

CITY           SKY/WX    TMP DP  RH WIND       PRES   REMARKS
COLUMBUS AFB   MOSUNNY   77  65  66 SW10G20   29.69S
CORINTH        PTSUNNY   72  64  78 S9G21     29.64S
GOLDN TRIANGLE PTSUNNY   75  64  69 SW16      29.70
STARKVILLE     PTSUNNY   73  63  68 SW12G18   29.71R
TUPELO         PTSUNNY   74  60  61 W13       29.67F
$$

MSZ040-058-191800-
CENTRAL MISSISSIPPI

CITY           SKY/WX    TMP DP  RH WIND       PRES   REMARKS
JACKSON INTL   MOSUNNY   75  61  61 W10       29.79R
JACKSON HAWKNS MOSUNNY   73  62  68 W15       29.80R
MERIDIAN KEY   CLOUDY    76  65  68 SW13G18   29.75F
MERIDIAN NAS   CLOUDY    77  65  66 VRB7G18   29.75R
RAYMOND        FAIR      73  68  83 SW10G17   29.80R
VICKSBURG      MOSUNNY   74  61  63 W8        29.81R
$$

MSZ059>079-191800-
SOUTH MISSISSIPPI

CITY           SKY/WX    TMP DP  RH WIND       PRES   REMARKS
BROOKHAVEN     FAIR     N/A N/A N/A W14G21    29.83S
HATTIESBURG    PTSUNNY   80  63  55 SW14G20   29.80S HAZE
MCCOMB         SUNNY     78  57  48 W16G22    29.82R
NATCHEZ        MOSUNNY   72  61  68 W7        29.84S
PINE BELT      PTSUNNY   79  61  53 W9        29.80S
$$

MSZ080>082-191800-
COASTAL MISSISSIPPI

CITY           SKY/WX    TMP DP  RH WIND       PRES   REMARKS
BAY ST LOUIS   MOSUNNY   81  63  54 MISG      29.82S
BILOXI         CLOUDY    78  71  81 SW13G18   29.82S
PASCAGOULA     CLOUDY    77  70  79 SW8       29.83S
GULFPORT       CLOUDY    77  69  76 S9        29.82S
$$



USA.gov is the U.S. government's official web portal to all federal, state and local government web resources and services.